{"data":{"norad_id":66469,"intl_designator":"2025-262P","name":"STARLINK-35451","alt_names":[],"object_type":"PAYLOAD","status":"ACTIVE","operator":null,"country":"US","launch_date":"2025-11-15","launch_site_code":"AFETR","launch_vehicle":null,"mission":null,"orbit_class":"UNKNOWN","rcs_meters":null,"size_class":null,"mass_kg":null,"dimensions":null,"purposes":["comms"],"wikipedia_slug":null,"has_3d_model":false,"image_url":null,"decayed_at":null,"tle_current":{"epoch":"2026-09-20T02:31:09.087456Z","epoch_age_seconds":123451,"freshness":"FRESH","line1":"1 66469U 25262P   26263.10496629  .00006894  00000+0  25971-3 0  9997","line2":"2 66469  42.9996 277.8716 0001081 220.5236 139.5535 15.27592430 48641","mean_motion":15.2759243,"eccentricity":0.0001081,"inclination_deg":42.9996,"raan_deg":277.8716,"arg_perigee_deg":220.5236,"mean_anomaly_deg":139.5535,"bstar":0.00025971,"rev_number":4864,"period_min":94.265981666327,"perigee_km":482.27018620683,"apogee_km":483.75356659391,"semimajor_km":6861.1488764004,"source":"CELESTRAK","updated_at":"2026-09-21T09:00:35.915142Z"}}}